FW5642 Weather Reports


Display with metric or nautical units.
time (UTC)temp
F
wind
direction
speed
MPH
gust
MPH
rain 1hr
in
rain 24hr
in
rain mn
in
humidity
%
barometer
mb
20260831143034 47 112 0.0 0.0 0.00 0.00 0.00 93 1016.8
20260831140143 46 112 0.0 0.0 0.00 0.00 0.00 92 1016.7
20260831134537 46 112 0.0 0.0 0.00 0.00 0.00 92 1016.8
20260831133038 47 112 0.0 0.0 0.00 0.00 0.00 92 1016.7
20260831131607 47 112 0.0 0.0 0.00 0.00 0.00 92 1016.7
20260831130035 47 112 0.0 0.0 0.00 0.00 0.00 91 1016.6
20260831124615 47 112 0.0 0.0 0.00 0.00 0.00 91 1016.6
20260831121651 48 112 0.0 0.0 0.00 0.00 0.00 90 1016.5
20260831120035 48 112 0.0 0.0 0.00 0.00 0.00 90 1016.5
20260831114536 49 112 0.0 0.0 0.00 0.00 0.00 90 1016.5
20260831113107 49 112 0.0 0.0 0.00 0.00 0.00 90 1016.5
20260831111546 49 112 0.0 0.0 0.00 0.00 0.00 89 1016.4
20260831110110 49 112 0.0 0.0 0.00 0.00 0.00 88 1016.4
20260831103030 49 112 0.0 0.0 0.00 0.00 0.00 87 1016.4
20260831101534 50 112 0.0 0.0 0.00 0.00 0.00 86 1016.5
20260831094644 51 112 0.0 0.0 0.00 0.00 0.00 85 1016.8
20260831093035 51 112 0.0 0.0 0.00 0.00 0.00 85 1016.8
20260831090034 51 112 0.0 0.0 0.00 0.00 0.00 84 1016.9
20260831084534 51 112 0.0 0.0 0.00 0.00 0.00 84 1017.0
20260831083141 52 104 0.0 0.0 0.00 0.00 0.00 83 1016.9
20260831081535 52 90 0.0 0.0 0.00 0.00 0.00 82 1016.9
20260831080106 52 90 0.0 0.0 0.00 0.00 0.00 81 1017.0
20260831074537 53 90 0.0 0.0 0.00 0.00 0.00 80 1017.0
20260831071536 54 90 0.0 0.0 0.00 0.00 0.00 79 1016.9
20260831070032 54 90 0.0 0.0 0.00 0.00 0.00 78 1017.0
20260831064534 54 90 0.0 0.0 0.00 0.00 0.00 78 1017.0
20260831063142 55 90 0.0 0.0 0.00 0.00 0.00 78 1017.1
20260831061533 55 90 0.0 0.0 0.00 0.00 0.00 77 1017.1
20260831060034 55 91 0.0 0.0 0.00 0.00 0.00 76 1017.0
20260831054532 55 101 0.0 0.0 0.00 0.00 0.00 77 1017.1
20260831053035 56 90 0.0 0.0 0.00 0.00 0.00 76 1017.2
20260831051534 56 198 0.0 0.0 0.00 0.00 0.00 75 1017.2
20260831050043 57 202 0.0 0.0 0.00 0.00 0.00 73 1017.1
20260831044534 58 206 0.0 0.0 0.00 0.00 0.00 71 1017.2
20260831043035 58 289 0.0 0.0 0.00 0.00 0.00 69 1017.2
20260831041538 59 292 0.0 0.0 0.00 0.00 0.00 67 1017.1
20260831033034 64 21 0.0 2.0 0.00 0.00 0.00 55 1016.8
20260831031536 67 277 0.0 4.0 0.00 0.00 0.00 50 1016.7
20260831030033 68 284 0.0 6.0 0.00 0.00 0.00 47 1016.6
20260831024535 69 253 1.0 8.0 0.00 0.00 0.00 46 1016.5
20260831023148 70 259 2.0 10.0 0.00 0.00 0.00 44 1016.5
20260831021535 71 255 3.0 10.0 0.00 0.00 0.00 43 1016.4
20260831020035 72 265 4.0 13.0 0.00 0.00 0.00 41 1016.4
20260831014529 73 282 4.0 13.0 0.00 0.00 0.00 41 1016.4
20260831013155 73 273 4.0 11.0 0.00 0.00 0.00 39 1016.5
20260831011535 74 294 6.0 15.0 0.00 0.00 0.00 37 1016.4
20260831010143 75 291 5.0 12.0 0.00 0.00 0.00 36 1016.6
20260831004537 76 287 4.0 10.0 0.00 0.00 0.00 35 1016.7
20260831003142 77 283 5.0 12.0 0.00 0.00 0.00 34 1016.7
20260831001534 77 272 4.0 11.0 0.00 0.00 0.00 34 1016.8
20260831000137 77 294 5.0 13.0 0.00 0.00 0.00 34 1016.9
20260830233031 77 292 6.0 13.0 0.00 0.00 0.00 35 1017.1
20260830231533 78 298 5.0 12.0 0.00 0.00 0.00 34 1017.2
20260830230033 78 293 4.0 11.0 0.00 0.00 0.00 35 1017.4
20260830224648 79 285 5.0 12.0 0.00 0.00 0.00 35 1017.7
20260830221534 78 246 3.0 10.0 0.00 0.00 0.00 35 1018.2
20260830220106 77 281 4.0 11.0 0.00 0.00 0.00 37 1018.6
20260830214606 76 299 4.0 11.0 0.00 0.00 0.00 38 1018.8
20260830213036 75 284 5.0 11.0 0.00 0.00 0.00 40 1018.9
20260830211536 74 286 4.0 11.0 0.00 0.00 0.00 43 1018.9
20260830210036 73 227 1.0 6.0 0.00 0.00 0.00 43 1018.9
20260830203029 71 304 2.0 8.0 0.00 0.00 0.00 46 1019.3
20260830200031 70 5 2.0 7.0 0.00 0.00 0.00 48 1019.8
20260830194534 70 10 2.0 10.0 0.00 0.00 0.00 49 1020.0
20260830193106 70 40 3.0 8.0 0.00 0.00 0.00 48 1020.3
20260830191642 71 35 2.0 10.0 0.00 0.00 0.00 48 1020.4
20260830190036 70 46 0.0 6.0 0.00 0.00 0.00 50 1020.6
20260830184535 70 324 2.0 7.0 0.00 0.00 0.00 51 1020.8
20260830183034 69 356 2.0 7.0 0.00 0.00 0.00 51 1021.0
20260830181607 68 3 1.0 6.0 0.00 0.00 0.00 53 1021.1
20260830174534 66 22 1.0 6.0 0.00 0.00 0.00 60 1021.3
20260830173031 64 358 2.0 7.0 0.00 0.00 0.00 63 1021.3
20260830171535 62 349 2.0 6.0 0.00 0.00 0.00 66 1021.4
20260830164606 60 220 1.0 5.0 0.00 0.00 0.00 70 1021.8
20260830163106 59 167 0.0 6.0 0.00 0.00 0.00 72 1022.0
20260830161530 58 102 0.0 3.0 0.00 0.00 0.00 74 1022.1
20260830160142 57 28 0.0 4.0 0.00 0.00 0.00 78 1022.2
20260830154535 55 98 0.0 0.0 0.00 0.00 0.00 83 1022.3
20260830151536 51 112 0.0 0.0 0.00 0.00 0.00 90 1022.5
20260830150034 49 112 0.0 0.0 0.00 0.00 0.00 91 1022.5